Andrews, NC

5:41 PM EDT on May 23, 2017 (GMT -0400)
Andrews

Weather History for KRHP - November, 2012

Change the Weather History Date:

Monday, November 19, 2012

  Actual Average (KMMI) Record (KMMI)
Temperature  
Mean Temperature 47 °F -  
Max Temperature 66 °F 61 °F 64 °F (2015)
Min Temperature 28 °F 36 °F 10 °F (2014)
Degree Days  
Heating Degree Days 18    
Moisture  
Dew Point 39 °F    
Average Humidity 85    
Maximum Humidity 100    
Minimum Humidity 49    
Precipitation  
Precipitation 0.00 in - - ()
Sea Level Pressure  
Sea Level Pressure 30.28 in    
Wind  
Wind Speed 1 mph (WSW)    
Max Wind Speed 9 mph    
Max Gust Speed -    
Visibility 8 miles    
Events      
Averages and records for this station are not official NWS values.
T = Trace of Precipitation, MM = Missing Value Source: NWS Daily Summary

Daily Weather History Graph

Daily Weather History Graph

Search for Another Location

Airport or City:

Trip Planner

Search our weather history database for the weather conditions in past years. The results will help you decide how hot, cold, wet, or windy it might be!

Date:

Astronomy

Nov. 19, 2012 Rise Set
Actual Time 7:14 AM EST 5:26 PM EST
Civil Twilight 6:47 AM EST 5:54 PM EST
Nautical Twilight 6:16 AM EST 6:25 PM EST
Astronomical Twilight 5:46 AM EST 6:55 PM EST
Moon 12:21 PM EST (11/19) 11:47 PM EST (11/19)
Length of Visible Light 11h 06m
Length of Day
10h 12m
Waxing Crescent, 40% of the Moon is Illuminated
Nov 19
Waxing Crescent
Nov 20
First Quarter
Nov 28
Full
Dec 6
Last Quarter
Dec 13
New

Hourly Weather History & Observations

Time (EST) Temp. Windchill Dew Point Humidity Pressure Visibility Wind Dir Wind Speed Gust Speed Precip Events Conditions
12:15 AM 33.8 °F - 33.8 °F 100% 30.35 in 10.0 mi Calm Calm - N/A   Clear
12:35 AM 33.8 °F - 33.8 °F 100% 30.36 in 4.0 mi Calm Calm - N/A   Clear
12:55 AM 33.8 °F - 33.8 °F 100% 30.36 in 1.5 mi Calm Calm - N/A   Unknown
1:15 AM 33.8 °F - 33.8 °F 100% 30.35 in 5.0 mi Calm Calm - N/A   Clear
1:35 AM 32.0 °F - 32.0 °F 100% 30.35 in 0.8 mi Calm Calm - N/A   Unknown
1:55 AM 32.0 °F - 32.0 °F 100% 30.35 in 1.8 mi Calm Calm - N/A   Unknown
2:15 AM 32.0 °F - 32.0 °F 100% 30.35 in 0.8 mi Calm Calm - N/A   Unknown
2:35 AM 32.0 °F - 32.0 °F 100% 30.35 in 7.0 mi Calm Calm - N/A   Clear
2:55 AM 32.0 °F - 32.0 °F 100% 30.35 in 1.8 mi Calm Calm - N/A   Unknown
3:15 AM 32.0 °F - 32.0 °F 100% 30.35 in 5.0 mi Calm Calm - N/A   Clear
3:35 AM 32.0 °F - 32.0 °F 100% 30.34 in 2.5 mi Calm Calm - N/A   Clear
3:55 AM 32.0 °F - 32.0 °F 100% 30.33 in 3.0 mi Calm Calm - N/A   Clear
4:15 AM 32.0 °F - 32.0 °F 100% 30.33 in 7.0 mi Calm Calm - N/A   Clear
4:35 AM 32.0 °F - 32.0 °F 100% 30.33 in 2.5 mi Calm Calm - N/A   Clear
4:55 AM 32.0 °F - 32.0 °F 100% 30.33 in 1.0 mi Calm Calm - N/A   Unknown
5:15 AM 30.2 °F - 30.2 °F 100% 30.33 in 1.0 mi Calm Calm - N/A   Unknown
5:35 AM 30.2 °F - 30.2 °F 100% 30.33 in 5.0 mi Calm Calm - N/A   Clear
5:55 AM 32.0 °F - 32.0 °F 100% 30.34 in 4.0 mi Calm Calm - N/A   Clear
6:15 AM 32.0 °F - 32.0 °F 100% 30.33 in 7.0 mi Calm Calm - N/A   Clear
6:35 AM 30.2 °F - 30.2 °F 100% 30.33 in 7.0 mi Calm Calm - N/A   Clear
6:55 AM 28.4 °F - 28.4 °F 100% 30.33 in 7.0 mi Calm Calm - N/A   Clear
7:15 AM 30.2 °F - 30.2 °F 100% 30.33 in 4.0 mi Calm Calm - N/A   Clear
7:35 AM 30.2 °F - 30.2 °F 100% 30.33 in 10.0 mi Calm Calm - N/A   Clear
7:55 AM 32.0 °F - 30.2 °F 93% 30.33 in 10.0 mi Calm Calm - N/A   Clear
8:35 AM 33.8 °F - 33.8 °F 100% 30.33 in 10.0 mi Calm Calm - N/A   Clear
8:55 AM 35.6 °F 32.8 °F 33.8 °F 93% 30.33 in 10.0 mi WSW 3.5 mph - N/A   Scattered Clouds
9:15 AM 35.6 °F - 35.6 °F 100% 30.34 in 10.0 mi Calm Calm - N/A   Mostly Cloudy
9:35 AM 37.4 °F - 37.4 °F 100% 30.34 in 10.0 mi Calm Calm - N/A   Overcast
9:55 AM 41.0 °F - 39.2 °F 93% 30.35 in 10.0 mi Calm Calm - N/A   Overcast
10:15 AM 42.8 °F - 39.2 °F 87% 30.34 in 10.0 mi Calm Calm - N/A   Overcast
10:35 AM 44.6 °F - 41.0 °F 87% 30.33 in 10.0 mi Calm Calm - N/A   Overcast
10:55 AM 46.4 °F - 41.0 °F 81% 30.33 in 10.0 mi Calm Calm - N/A   Overcast
11:15 AM 50.0 °F - 42.8 °F 76% 30.32 in 10.0 mi Calm Calm - N/A   Overcast
11:35 AM 51.8 °F - 42.8 °F 71% 30.31 in 10.0 mi West 3.5 mph - N/A   Overcast
11:55 AM 55.4 °F - 44.6 °F 67% 30.30 in 10.0 mi WSW 3.5 mph - N/A   Overcast
12:15 PM 59.0 °F - 44.6 °F 59% 30.28 in 10.0 mi WSW 4.6 mph - N/A   Scattered Clouds
12:35 PM 59.0 °F - 42.8 °F 55% 30.27 in 10.0 mi West 3.5 mph - N/A   Clear
12:55 PM 60.8 °F - 44.6 °F 55% 30.26 in 10.0 mi SW 3.5 mph - N/A   Mostly Cloudy
1:15 PM 62.6 °F - 46.4 °F 55% 30.25 in 10.0 mi West 4.6 mph - N/A   Scattered Clouds
1:35 PM 64.4 °F - 46.4 °F 52% 30.24 in 10.0 mi West 4.6 mph - N/A   Mostly Cloudy
1:55 PM 64.4 °F - 48.2 °F 56% 30.24 in 10.0 mi West 5.8 mph - N/A   Overcast
2:15 PM 64.4 °F - 48.2 °F 56% 30.23 in 10.0 mi SW 8.1 mph - N/A   Overcast
2:35 PM 66.2 °F - 50.0 °F 56% 30.22 in 10.0 mi West 6.9 mph - N/A   Overcast
2:55 PM 64.4 °F - 48.2 °F 56% 30.22 in 10.0 mi SW 9.2 mph - N/A   Mostly Cloudy
3:15 PM 66.2 °F - 48.2 °F 52% 30.22 in 10.0 mi West 6.9 mph - N/A   Scattered Clouds
3:35 PM 64.4 °F - 48.2 °F 56% 30.21 in 10.0 mi WSW 6.9 mph - N/A   Mostly Cloudy
3:55 PM 66.2 °F - 46.4 °F 49% 30.21 in 10.0 mi WSW 6.9 mph - N/A   Scattered Clouds
4:15 PM 64.4 °F - 46.4 °F 52% 30.21 in 10.0 mi WSW 5.8 mph - N/A   Clear
4:35 PM 62.6 °F - 46.4 °F 55% 30.21 in 10.0 mi SW 4.6 mph - N/A   Scattered Clouds
4:55 PM 60.8 °F - 44.6 °F 55% 30.21 in 10.0 mi SW 4.6 mph - N/A   Scattered Clouds
5:15 PM 59.0 °F - 46.4 °F 63% 30.21 in 10.0 mi Calm Calm - N/A   Scattered Clouds
5:35 PM 55.4 °F - 46.4 °F 72% 30.21 in 10.0 mi Calm Calm - N/A   Scattered Clouds
5:55 PM 51.8 °F - 44.6 °F 76% 30.21 in 10.0 mi Calm Calm - N/A   Clear
6:15 PM 48.2 °F - 44.6 °F 87% 30.21 in 10.0 mi Calm Calm - N/A   Scattered Clouds
6:35 PM 50.0 °F - 44.6 °F 82% 30.22 in 10.0 mi Calm Calm - N/A   Scattered Clouds
6:55 PM 46.4 °F - 42.8 °F 87% 30.21 in 10.0 mi Calm Calm - N/A   Clear
7:15 PM 44.6 °F - 42.8 °F 93% 30.22 in 10.0 mi Calm Calm - N/A   Clear
7:35 PM 44.6 °F - 41.0 °F 87% 30.22 in 10.0 mi Calm Calm - N/A   Clear
7:55 PM 44.6 °F - 41.0 °F 87% 30.22 in 10.0 mi Calm Calm - N/A   Clear
8:15 PM 42.8 °F - 41.0 °F 93% 30.23 in 10.0 mi Calm Calm - N/A   Clear
8:35 PM 42.8 °F - 41.0 °F 93% 30.22 in 10.0 mi Calm Calm - N/A   Clear
8:55 PM 41.0 °F - 41.0 °F 100% 30.22 in 10.0 mi Calm Calm - N/A   Clear
9:15 PM 42.8 °F - 41.0 °F 93% 30.23 in 10.0 mi Calm Calm - N/A   Clear
9:35 PM 41.0 °F - 41.0 °F 100% 30.23 in 10.0 mi Calm Calm - N/A   Clear
10:15 PM 39.2 °F - 37.4 °F 93% 30.23 in 10.0 mi Calm Calm - N/A   Mostly Cloudy
10:35 PM 37.4 °F - 37.4 °F 100% 30.23 in 10.0 mi Calm Calm - N/A   Overcast
10:55 PM 39.2 °F - 37.4 °F 93% 30.23 in 10.0 mi Calm Calm - N/A   Overcast
11:15 PM 41.0 °F - 39.2 °F 93% 30.22 in 10.0 mi Calm Calm - N/A   Mostly Cloudy
11:35 PM 41.0 °F - 39.2 °F 93% 30.22 in 10.0 mi Calm Calm - N/A   Mostly Cloudy
11:55 PM 39.2 °F - 39.2 °F 100% 30.22 in 10.0 mi Calm Calm - N/A   Mostly Cloudy